カタログに戻る

STARLINK-11361

運用中通信VLEO
NORAD 61585·PAYLOAD·🇺🇸 United States

打ち上げ Oct 18, 2024 から Cape Canaveral Space Force Station

Loading…

次のパス (今後24時間)

TLE

最新Source: CelesTrak SupGP

元期: Sep 15, 2026, 02:21 UTC

1 61585C 24187M   26258.09840278  .00037368  00000+0  30764-3 0  2585
2 61585  53.1568  82.6691 0001038  85.2677  45.4443 15.69704633    13

AllMySatでSTARLINK-11361をリアルタイム追跡

Download on the App Store